Change the Weather History Date:

Monday, January 28, 2013

  Actual Average (KJKL) Record (KJKL)
Temperature  
Mean Temperature 50 °F 36 °F  
Max Temperature 62 °F 44 °F 72 °F (2002)
Min Temperature 38 °F 27 °F -2 °F (1986)
Degree Days  
Heating Degree Days 15 30  
Month to date heating degree days 840  
Since 1 July heating degree days 2474  
Cooling Degree Days 0 0  
Month to date cooling degree days 0  
Year to date cooling degree days 0  
Moisture  
Dew Point 45 °F    
Average Humidity 82    
Maximum Humidity 94    
Minimum Humidity 57    
Precipitation  
Precipitation 0.00 in 0.13 in 0.97 in (2009)
Month to date precipitation 3.24  
Year to date precipitation 3.24  
Snow  
Snow 0.00 in 0.30 in 1.30 in (2009)
Month to date snowfall 6.3  
Since 1 July snowfall 11.8  
Snow Depth -    
Sea Level Pressure  
Sea Level Pressure 30.19 in    
Wind  
Wind Speed 7 mph (SSW)    
Max Wind Speed 14 mph    
Max Gust Speed 23 mph    
Visibility 9 miles    
Events Rain    
T = Trace of Precipitation, MM = Missing Value Source: NWS Daily Summary

Daily Weather History Graph

Daily Weather History Graph

Search for Another Location

Airport or City:

Trip Planner

Search our weather history database for the weather conditions in past years. The results will help you decide how hot, cold, wet, or windy it might be!

Date:

Astronomy

Jan. 28, 2013 Rise Set
Actual Time 7:37 AM EST 5:50 PM EST
Civil Twilight 7:09 AM EST 6:17 PM EST
Nautical Twilight 6:38 AM EST 6:49 PM EST
Astronomical Twilight 6:07 AM EST 7:20 PM EST
Moon 7:40 PM EST (1/28) 8:05 AM EST (1/28)
Length of Visible Light 11h 08m
Length of Day
10h 12m
Full, 98% of the Moon is Illuminated
Jan 28
Full
Feb 3
Last Quarter
Feb 10
New
Feb 17
First Quarter
Feb 25
Full

Hourly Weather History & Observations

Time (EST) Temp. Windchill Dew Point Humidity Pressure Visibility Wind Dir Wind Speed Gust Speed Precip Events Conditions
12:15 AM 38.8 °F 36.5 °F 37.0 °F 93% 30.24 in 5.0 mi SE 3.5 mph - N/A   Overcast
12:35 AM 39.4 °F 36.1 °F 37.4 °F 93% 30.23 in 7.0 mi SSE 4.6 mph - N/A   Overcast
12:55 AM 40.1 °F 36.9 °F 37.8 °F 91% 30.23 in 7.0 mi South 4.6 mph - N/A   Overcast
1:15 AM 40.1 °F 38.0 °F 38.3 °F 93% 30.23 in 10.0 mi South 3.5 mph - N/A   Overcast
1:35 AM 40.3 °F 38.2 °F 38.3 °F 93% 30.23 in 10.0 mi South 3.5 mph - N/A   Overcast
1:55 AM 40.6 °F 36.7 °F 38.3 °F 91% 30.23 in 5.0 mi South 5.8 mph - N/A   Overcast
2:15 AM 41.0 °F 38.0 °F 38.5 °F 91% 30.23 in 10.0 mi South 4.6 mph - N/A   Overcast
2:35 AM 41.4 °F 37.6 °F 39.2 °F 92% 30.23 in 10.0 mi South 5.8 mph - N/A   Overcast
2:55 AM 41.9 °F 38.2 °F 39.2 °F 90% 30.23 in 10.0 mi South 5.8 mph - N/A   Overcast
3:15 AM 41.9 °F 38.2 °F 39.2 °F 90% 30.23 in 10.0 mi South 5.8 mph - N/A   Overcast
3:35 AM 42.1 °F 36.6 °F 39.2 °F 90% 30.22 in 10.0 mi South 9.2 mph - N/A   Overcast
3:55 AM 42.4 °F 37.0 °F 39.2 °F 88% 30.22 in 10.0 mi South 9.2 mph - N/A   Overcast
4:15 AM 43.2 °F 37.4 °F 39.4 °F 86% 30.21 in 10.0 mi South 10.4 mph - N/A   Overcast
4:35 AM 43.9 °F 39.9 °F 39.4 °F 84% 30.21 in 10.0 mi South 6.9 mph - N/A   Overcast
4:55 AM 43.9 °F 39.9 °F 39.2 °F 84% 30.22 in 10.0 mi South 6.9 mph - N/A   Mostly Cloudy
5:15 AM 43.7 °F 38.6 °F 39.2 °F 84% 30.22 in 10.0 mi South 9.2 mph - N/A   Scattered Clouds
5:35 AM 43.5 °F 39.4 °F 39.2 °F 85% 30.22 in 10.0 mi South 6.9 mph - N/A   Clear
5:55 AM 43.2 °F 39.0 °F 38.7 °F 84% 30.21 in 10.0 mi South 6.9 mph - N/A   Clear
6:15 AM 42.8 °F 38.6 °F 38.7 °F 85% 30.21 in 10.0 mi South 6.9 mph - N/A   Clear
6:35 AM 43.9 °F 38.8 °F 39.2 °F 84% 30.21 in 10.0 mi South 9.2 mph - N/A   Clear
6:55 AM 44.2 °F 39.7 °F 38.7 °F 81% 30.22 in 10.0 mi South 8.1 mph - N/A   Clear
7:15 AM 44.6 °F 40.7 °F 38.7 °F 80% 30.22 in 10.0 mi South 6.9 mph - N/A   Clear
7:35 AM 46.4 °F 42.9 °F 39.2 °F 76% 30.22 in 10.0 mi SSW 6.9 mph - N/A   Scattered Clouds
7:55 AM 47.5 °F - 39.7 °F 75% 30.22 in 10.0 mi SSW 6.9 mph - N/A   Overcast
8:15 AM 48.4 °F - 39.7 °F 72% 30.22 in 10.0 mi SSW 9.2 mph - N/A   Mostly Cloudy
8:35 AM 49.6 °F - 40.1 °F 70% 30.23 in 10.0 mi SSW 8.1 mph - N/A   Mostly Cloudy
8:55 AM 49.6 °F - 40.3 °F 70% 30.22 in 10.0 mi South 9.2 mph - N/A   Overcast
9:15 AM 51.3 °F - 41.2 °F 68% 30.22 in 10.0 mi SSW 9.2 mph - N/A   Overcast
9:35 AM 52.3 °F - 41.9 °F 68% 30.21 in 10.0 mi SSW 9.2 mph - N/A   Overcast
9:55 AM 52.3 °F - 41.9 °F 68% 30.21 in 10.0 mi SSW 10.4 mph - N/A   Overcast
10:15 AM 53.2 °F - 42.4 °F 67% 30.21 in 10.0 mi SSW 8.1 mph - N/A   Overcast
10:35 AM 53.6 °F - 43.3 °F 68% 30.21 in 10.0 mi SSW 9.2 mph - N/A   Overcast
10:55 AM 54.1 °F - 43.5 °F 67% 30.21 in 10.0 mi SSW 8.1 mph - N/A   Overcast
11:15 AM 55.2 °F - 43.9 °F 66% 30.21 in 10.0 mi SSW 6.9 mph - N/A   Overcast
11:35 AM 56.3 °F - 44.6 °F 65% 30.20 in 10.0 mi SSW 6.9 mph - N/A   Overcast
11:55 AM 58.3 °F - 45.5 °F 62% 30.20 in 10.0 mi SW 8.1 mph 17.3 mph N/A   Overcast
12:15 PM 59.4 °F - 46.0 °F 61% 30.18 in 10.0 mi SSW 11.5 mph 17.3 mph N/A   Overcast
12:35 PM 60.8 °F - 46.4 °F 59% 30.17 in 10.0 mi WSW 6.9 mph - N/A   Overcast
12:55 PM 62.1 °F - 46.6 °F 57% 30.16 in 10.0 mi WSW 10.4 mph 19.6 mph N/A   Overcast
1:15 PM 61.7 °F - 46.8 °F 58% 30.16 in 10.0 mi WSW 10.4 mph 21.9 mph N/A   Overcast
1:35 PM 61.5 °F - 46.9 °F 59% 30.15 in 10.0 mi WSW 11.5 mph 20.7 mph N/A   Overcast
1:55 PM 60.8 °F - 46.8 °F 60% 30.15 in 10.0 mi WSW 12.7 mph 20.7 mph N/A   Overcast
2:15 PM 59.5 °F - 47.5 °F 64% 30.14 in 10.0 mi SW 12.7 mph 18.4 mph N/A Rain Rain
2:35 PM 58.1 °F - 48.9 °F 71% 30.14 in 10.0 mi WSW 9.2 mph 17.3 mph N/A Rain Light Rain
2:55 PM 57.2 °F - 49.8 °F 76% 30.14 in 7.0 mi SW 9.2 mph 17.3 mph N/A Rain Rain
3:15 PM 56.3 °F - 50.4 °F 80% 30.14 in 7.0 mi WSW 13.8 mph 18.4 mph N/A Rain Light Rain
3:35 PM 55.2 °F - 51.1 °F 86% 30.14 in 7.0 mi SW 8.1 mph - N/A Rain Light Rain
3:55 PM 54.1 °F - 51.8 °F 92% 30.15 in 7.0 mi SW 8.1 mph - N/A Rain Rain
4:15 PM 54.0 °F - 51.8 °F 92% 30.14 in 5.0 mi SW 8.1 mph - N/A Rain Light Rain
4:35 PM 53.8 °F - 51.8 °F 93% 30.15 in 5.0 mi SW 5.8 mph - N/A Rain Heavy Rain
4:55 PM 53.6 °F - 51.8 °F 94% 30.15 in 7.0 mi SW 8.1 mph - N/A   Drizzle
5:15 PM 53.6 °F - 51.3 °F 92% 30.15 in 5.0 mi SW 8.1 mph - N/A   Drizzle
5:35 PM 53.2 °F - 51.3 °F 93% 30.15 in 10.0 mi SW 4.6 mph - N/A   Light Drizzle
5:55 PM 53.2 °F - 51.1 °F 92% 30.15 in 10.0 mi SW 6.9 mph - N/A Rain Light Rain
6:15 PM 52.9 °F - 51.1 °F 94% 30.16 in 7.0 mi SW 3.5 mph - N/A   Drizzle
6:55 PM 52.9 °F - 51.3 °F 94% 30.17 in 10.0 mi SSW 4.6 mph - N/A Rain Rain
7:15 PM 52.9 °F - 50.9 °F 93% 30.16 in 10.0 mi SSW 5.8 mph - N/A   Light Drizzle
7:35 PM 52.9 °F - 50.9 °F 93% 30.16 in 10.0 mi SSW 6.9 mph - N/A   Overcast
7:55 PM 53.2 °F - 50.5 °F 91% 30.17 in 10.0 mi SSW 5.8 mph - N/A   Overcast
8:15 PM 53.2 °F - 50.5 °F 91% 30.17 in 10.0 mi SW 4.6 mph - N/A   Overcast
8:35 PM 53.2 °F - 50.4 °F 90% 30.16 in 10.0 mi SW 5.8 mph - N/A   Overcast
8:55 PM 53.2 °F - 50.4 °F 90% 30.16 in 10.0 mi SW 3.5 mph - N/A   Overcast
9:15 PM 54.1 °F - 50.0 °F 86% 30.16 in 10.0 mi SSW 11.5 mph 23.0 mph N/A   Overcast
9:35 PM 53.6 °F - 50.0 °F 88% 30.16 in 10.0 mi SW 4.6 mph - N/A   Overcast
9:55 PM 54.0 °F - 50.0 °F 86% 30.15 in 10.0 mi SSW 4.6 mph - N/A   Overcast
10:15 PM 53.8 °F - 50.0 °F 87% 30.15 in 10.0 mi SSW 3.5 mph - N/A   Overcast
10:35 PM 54.1 °F - 50.2 °F 86% 30.15 in 10.0 mi SW 4.6 mph - N/A   Overcast
10:55 PM 53.4 °F - 50.5 °F 90% 30.15 in 7.0 mi SSW 5.8 mph - N/A Rain Rain
11:15 PM 53.2 °F - 50.9 °F 92% 30.15 in 10.0 mi SSW 4.6 mph - N/A Rain Light Rain
11:35 PM 53.6 °F - 50.5 °F 89% 30.15 in 10.0 mi SW 4.6 mph - N/A   Overcast
11:55 PM 54.0 °F - 50.4 °F 88% 30.15 in 10.0 mi WSW 8.1 mph - N/A   Overcast